[[{"header":{"parameterUnit":"m.s-1","parameterCategory":1,"la1":30.2991,"la2":30.254,"lo1":-89.0895,"lo2":-89.0444,"dy":0.0017,"dx":0.0017,"nx":28,"ny":28,"refTime":"2024-04-17T03:00:00:Z","depth":0,"parameterNumber":2,"parameterNumberName":"U-component_of_WINDS"},"data":[0,0,0,0,0,0,0,0,0,0,0,0,0,0,0,0,0,0,0,0,0,0,0,0,0,0,0,0,0,0,0,0,0,0,0,0,0,0,0,0,0,0,0,0,0,0,0,0,0,0,0,0,0,0,0,0,0,0,-1.9929,-1.9928,0,-1.9847,-1.9846,-1.9845,-1.9784,-1.9784,-1.9783,-1.9783,-1.9697,-1.9695,-1.9694,0,0,0,0,0,0,0,0,0,0,0,0,0,-2.0032,-2.0031,-1.9929,-1.9928,-1.9927,-1.9848,-1.9846,-1.9845,-1.9784,-1.9784,-1.9783,-1.9782,-1.9698,-1.9696,-1.9694,0,0,0,0,0,0,0,0,0,0,0,0,0,-1.9973,-2.003,-1.993,-1.9887,-1.9883,-1.9848,-1.9846,-1.9845,-1.9784,-1.9784,-1.9783,-1.9782,-1.9698,-1.9696,-1.9693,-1.9693,0,0,-1.9685,-1.9684,0,0,0,0,0,0,0,0,-1.9976,-1.9969,-1.9895,-1.989,-1.9885,-1.9825,-1.9851,-1.9794,-1.9785,-1.9822,-1.9782,-1.9782,-1.974,-1.9734,-1.9721,-1.9689,-1.9686,-1.9685,-1.9683,-1.9682,-1.9681,0,0,0,0,0,0,0,-1.998,-1.9972,-1.9897,-1.9894,-1.9888,-1.9872,-1.9863,-1.984,-1.9787,-1.9818,-1.9814,-1.9805,-1.9738,-1.9723,-1.9718,-1.9684,-1.9685,-1.9683,-1.9681,-1.968,-1.9649,-1.965,0,0,0,0,0,0,-1.9991,-1.9976,-1.9899,-1.9894,-1.993,-1.9871,-1.9861,-1.9845,-1.9787,-1.9777,-1.9806,-1.9802,-1.9728,-1.9721,-1.9715,-1.9711,-1.9682,-1.968,-1.9678,-1.9649,-1.9649,-1.965,0,0,0,0,0,0,-1.9994,-1.9985,-1.9903,-1.9934,-1.9922,-1.987,-1.9853,-1.9844,-1.983,-1.9777,-1.9767,-1.9801,-1.9727,-1.9719,-1.9699,-1.9707,-1.9679,-1.9676,-1.9648,-1.9649,-1.965,-1.9703,0,0,0,0,0,0,-1.9997,-1.9986,-1.9986,-1.9934,-1.9921,-1.9889,-1.9854,-1.9843,-1.9825,-1.982,-1.977,-1.9761,-1.9726,-1.9704,-1.9697,-1.9703,-1.9674,-1.9647,-1.9648,-1.9649,-1.97,-1.9706,-1.971,0,0,0,0,0,-2.0001,-2.0004,-1.9986,-1.9977,-1.9919,-1.9889,-1.9882,-1.9842,-1.9826,-1.9825,-1.9792,-1.9762,-1.9708,-1.9702,-1.9694,-1.9699,-1.9646,-1.9648,-1.9649,-1.9698,-1.9705,-1.971,0,0,0,0,0,0,-2.0057,-1.9996,-1.9976,-1.9962,-1.9932,-1.9879,-1.9876,-1.985,-1.9823,-1.9819,-1.977,-1.976,-1.9745,-1.972,-1.9715,-1.9696,-1.9673,-1.9673,-1.9713,-1.9719,-1.9724,-1.973,-1.9672,0,0,0,0,0,-2.0068,-2.0049,-1.9997,-1.999,-1.9975,-1.9929,-1.9914,-1.9887,-1.9852,-1.9839,-1.9804,-1.9772,-1.9747,-1.9732,-1.9706,-1.9697,-1.9685,-1.9697,-1.9702,-1.9706,-1.9707,-1.97,-1.9704,-1.9656,-1.9656,-1.9656,0,0,-2.009,-2.0054,-2.0045,-2.0,-1.9973,-1.9954,-1.9918,-1.99,-1.9885,-1.9836,-1.9815,-1.9789,-1.975,-1.9736,-1.9727,-1.9714,-1.9718,-1.9709,-1.9713,-1.971,-1.9702,-1.9707,-1.9711,-1.9657,-1.9657,-1.9657,0,0,-2.012,-2.0091,-2.0082,-2.0056,-2.0016,-1.9985,-1.9983,-1.9935,-1.9915,-1.9894,-1.9857,-1.9839,-1.9798,-1.9771,-1.9753,-1.9775,-1.9747,-1.9768,-1.9794,-1.9788,-1.9792,-1.9795,-1.9802,-1.9805,-1.9768,-1.9769,-1.9769,0,-2.0152,-2.0122,-2.0081,-2.0065,-2.0046,-2.0002,-1.9992,-1.9968,-1.9922,-1.991,-1.9896,-1.9844,-1.9814,-1.9793,-1.9799,-1.9785,-1.9781,-1.9772,-1.9795,-1.9797,-1.9799,-1.9806,-1.9809,-1.9771,-1.9771,-1.9771,-1.9771,0,-2.0163,-2.0144,-2.0141,-2.0098,-2.0079,-2.0066,-2.0023,-2.0009,-1.9983,-1.9954,-1.9933,-1.9897,-1.9863,-1.9856,-1.9831,-1.9832,-1.9825,-1.9804,-1.9779,-1.9808,-1.9813,-1.9815,-1.9775,-1.9774,-1.9774,-1.9773,0,0,-2.0225,-2.016,-2.016,-2.0139,-2.0092,-2.0076,-2.0062,-2.0029,-2.0018,-1.9988,-1.9974,-1.9941,-1.9921,-1.99,-1.9871,-1.9866,-1.9885,-1.9845,-1.9844,-1.9853,-1.9884,-1.9899,-1.9903,-1.9867,-1.9868,-1.9868,-1.9887,0,-2.0247,-2.0219,-2.0182,-2.0166,-2.0147,-2.0105,-2.0092,-2.0062,-2.0035,-2.0014,-1.9984,-1.9961,-1.9937,-1.9924,-1.9917,-1.9885,-1.9891,-1.9883,-1.9853,-1.9853,-1.9863,-1.9906,-1.9922,-1.9941,-1.9889,-1.9889,-1.9889,0,-2.0269,-2.0241,-2.0224,-2.0178,-2.0169,-2.0158,-2.0126,-2.0107,-2.0072,-2.0053,-2.003,-1.9999,-1.9982,-1.9961,-1.9936,-1.9932,-1.9918,-1.99,-1.99,-1.9895,-1.9872,-1.9901,-1.9947,-1.995,-1.9892,-1.9892,-1.9892,0,-2.0315,-2.0273,-2.0257,-2.0242,-2.0188,-2.0182,-2.016,-2.0124,-2.0107,-2.0079,-2.0067,-2.0038,-2.0021,-1.9999,-1.9961,-1.9949,-1.994,-1.9916,-1.9923,-1.9924,-1.9922,-1.9922,-1.9965,-1.9915,-1.9915,-1.9915,-1.9915,0,-2.0343,-2.0333,-2.0277,-2.0267,-2.0256,-2.0213,-2.0203,-2.0177,-2.0146,-2.013,-2.0092,-2.0078,-2.0029,-2.001,-1.998,-1.9964,-1.9957,-1.994,-1.9932,-1.9943,-1.9945,-1.9932,-1.993,-1.9915,-1.9915,-1.9915,-1.9915,0,-2.0392,-2.0354,-2.0333,-2.0285,-2.0273,-2.0267,-2.0225,-2.0214,-2.0185,-2.0165,-2.0158,-2.0113,-2.0088,-2.0048,-2.0011,-1.9992,-1.998,-1.9968,-1.9992,-1.9987,-1.9996,-1.9995,-2.0032,-2.0034,-1.9983,-1.9984,-1.9984,0,-2.0411,-2.0403,-2.0355,-2.0341,-2.0321,-2.03,-2.0283,-2.0241,-2.0225,-2.0185,-2.0178,-2.015,-2.0126,-2.0088,-2.0051,-2.0023,-2.0009,-2.0023,-2.0004,-2.0015,-2.0008,-2.0009,-2.0007,-2.0027,-2.0028,-2.0029,-2.0029,0,-2.0451,-2.0433,-2.0409,-2.038,-2.036,-2.0335,-2.0308,-2.0299,-2.0252,-2.0235,-2.0209,-2.019,-2.0153,-2.0126,-2.0092,-2.0069,-2.0041,-2.0036,-2.0036,-2.0046,-2.0061,-2.0052,-2.0003,-2.0035,-2.0034,-2.0034,-2.0034,-2.0033,-2.0485,-2.0476,-2.044,-2.0416,-2.0391,-2.0367,-2.0354,-2.0324,-2.0301,-2.0268,-2.0245,-2.022,-2.0186,-2.0138,-2.0117,-2.0097,-2.0085,-2.0085,-2.0085,-2.0085,-2.0089,-2.0065,-2.0091,-2.0091,-2.009,-2.009,-2.009,0,-2.0522,-2.0497,-2.0475,-2.0438,-2.0419,-2.0395,-2.0364,-2.035,-2.0329,-2.0299,-2.0276,-2.0246,-2.022,-2.0182,-2.0152,-2.0144,-2.013,-2.0138,-2.0137,-2.0132,-2.0102,-2.0104,-2.0149,-2.0149,-2.0149,-2.0149,-2.0149,-2.0149,-2.0539,-2.0522,-2.05,-2.047,-2.0445,-2.0421,-2.0406,-2.0383,-2.0359,-2.0328,-2.0306,-2.0281,-2.0248,-2.0216,-2.0191,-2.0181,-2.0171,-2.0182,-2.0168,-2.014,-2.0134,-2.0129,-2.0131,-2.0181,-2.0181,-2.02,-2.02,-2.02]},{"header":{"parameterUnit":"m.s-1","parameterCategory":1,"la1":30.2991,"la2":30.254,"lo1":-89.0895,"lo2":-89.0444,"dy":0.0017,"dx":0.0017,"nx":28,"ny":28,"refTime":"2024-04-17T03:00:00:Z","depth":0,"parameterNumber":3,"parameterNumberName":"V-component_of_WINDS"},"data":[0,0,0,0,0,0,0,0,0,0,0,0,0,0,0,0,0,0,0,0,0,0,0,0,0,0,0,0,0,0,0,0,0,0,0,0,0,0,0,0,0,0,0,0,0,0,0,0,0,0,0,0,0,0,0,0,0,0,2.9489,2.9489,0,2.9524,2.9524,2.9524,2.9558,2.9559,2.9559,2.956,2.9594,2.9595,2.9595,0,0,0,0,0,0,0,0,0,0,0,0,0,2.9451,2.9451,2.9489,2.9489,2.949,2.9524,2.9524,2.9524,2.9558,2.9559,2.9559,2.956,2.9594,2.9595,2.9595,0,0,0,0,0,0,0,0,0,0,0,0,0,2.9474,2.9451,2.9489,2.9511,2.9513,2.9523,2.9524,2.9525,2.9558,2.9559,2.956,2.956,2.9594,2.9595,2.9595,2.9587,0,0,2.9598,2.9598,0,0,0,0,0,0,0,0,2.9473,2.9476,2.9507,2.9509,2.9512,2.9537,2.9523,2.9545,2.9558,2.9541,2.956,2.9561,2.9575,2.9577,2.9582,2.9588,2.959,2.9598,2.9598,2.9599,2.9599,0,0,0,0,0,0,0,2.9471,2.9474,2.9503,2.9508,2.9511,2.9518,2.9523,2.9528,2.9554,2.9543,2.9545,2.9549,2.9576,2.9581,2.9583,2.959,2.9598,2.9598,2.9599,2.9599,2.959,2.9589,0,0,0,0,0,0,2.9467,2.9473,2.9502,2.9504,2.9494,2.9519,2.9523,2.9529,2.9554,2.9558,2.9548,2.955,2.958,2.9582,2.9584,2.9576,2.9599,2.9599,2.96,2.9591,2.959,2.9589,0,0,0,0,0,0,2.9466,2.9469,2.95,2.9489,2.9494,2.9518,2.9524,2.9529,2.9534,2.9558,2.9563,2.9549,2.958,2.9583,2.9586,2.9578,2.96,2.96,2.9591,2.959,2.9589,2.9559,0,0,0,0,0,0,2.9464,2.9468,2.9466,2.9489,2.9494,2.9501,2.9524,2.9529,2.9535,2.9538,2.956,2.9564,2.9581,2.9584,2.9586,2.9579,2.9601,2.9592,2.9591,2.959,2.9561,2.9557,2.9553,0,0,0,0,0,2.9463,2.9456,2.9465,2.9469,2.9491,2.9501,2.9504,2.9524,2.9535,2.9532,2.9547,2.9563,2.9578,2.9584,2.9587,2.958,2.9593,2.9591,2.959,2.9562,2.9557,2.9553,0,0,0,0,0,0,2.9431,2.9459,2.947,2.947,2.9483,2.9507,2.9504,2.9518,2.9528,2.9531,2.9555,2.9559,2.9559,2.9569,2.9576,2.9572,2.9588,2.9586,2.9566,2.9561,2.9558,2.9556,2.9601,0,0,0,0,0,2.9424,2.943,2.9454,2.9451,2.9457,2.9479,2.9484,2.9498,2.9512,2.9518,2.9533,2.9546,2.9553,2.9557,2.9566,2.9561,2.9567,2.9558,2.9554,2.9551,2.955,2.9549,2.9545,2.9584,2.9584,2.9584,0,0,2.941,2.9426,2.9428,2.9445,2.9457,2.9462,2.9484,2.9488,2.9492,2.9518,2.9522,2.9533,2.9549,2.9547,2.9548,2.9556,2.954,2.9549,2.9546,2.9547,2.9547,2.9543,2.954,2.9583,2.9583,2.9583,0,0,2.9387,2.9399,2.9399,2.9409,2.9426,2.9441,2.944,2.9462,2.947,2.9474,2.9494,2.9498,2.951,2.952,2.9527,2.9506,2.9521,2.9507,2.9489,2.9487,2.9484,2.9482,2.9475,2.9472,2.9506,2.9506,2.9506,0,2.9367,2.9376,2.9396,2.94,2.9406,2.943,2.9429,2.9439,2.9457,2.9461,2.947,2.9485,2.9497,2.9499,2.9494,2.9498,2.9498,2.9506,2.9483,2.9481,2.9479,2.9472,2.9469,2.9504,2.9504,2.9505,2.9505,0,2.935,2.9356,2.9353,2.9371,2.9377,2.9378,2.9399,2.9402,2.9415,2.9429,2.9431,2.9446,2.9458,2.9459,2.9471,2.9462,2.9467,2.9479,2.9495,2.9473,2.9467,2.9465,2.9502,2.9503,2.9503,2.9503,0,0,2.931,2.9338,2.9337,2.9345,2.9365,2.9369,2.937,2.9382,2.9385,2.9396,2.9398,2.9406,2.9418,2.9425,2.9439,2.9437,2.9419,2.945,2.945,2.9444,2.941,2.9401,2.9398,2.9429,2.9428,2.9428,2.9409,0,2.9291,2.9297,2.9315,2.9314,2.9319,2.9341,2.9342,2.9354,2.9366,2.9371,2.9384,2.939,2.9404,2.9409,2.9408,2.9422,2.9413,2.9423,2.9431,2.9431,2.9428,2.9395,2.9386,2.9368,2.9406,2.9406,2.9406,0,2.9271,2.9281,2.9281,2.9299,2.9302,2.9303,2.9315,2.932,2.9333,2.9341,2.9349,2.9364,2.9366,2.938,2.9383,2.9389,2.9393,2.94,2.94,2.9403,2.9418,2.9398,2.9362,2.936,2.9402,2.9403,2.9403,0,2.9242,2.9255,2.9257,2.9263,2.9285,2.9285,2.9294,2.9308,2.9313,2.9322,2.9326,2.9335,2.934,2.9346,2.9363,2.9372,2.9364,2.938,2.9372,2.9371,2.9371,2.9371,2.9336,2.9371,2.9371,2.9371,2.9371,0,2.922,2.922,2.9245,2.9246,2.9246,2.9265,2.9264,2.9275,2.9287,2.929,2.9308,2.9311,2.9332,2.9337,2.935,2.935,2.9352,2.9359,2.9363,2.9358,2.9358,2.9362,2.9365,2.937,2.937,2.937,2.9371,0,2.919,2.9206,2.921,2.923,2.9234,2.9233,2.925,2.9251,2.9263,2.9267,2.9269,2.9288,2.9294,2.9311,2.9322,2.933,2.9328,2.9334,2.9324,2.9326,2.9317,2.9318,2.9286,2.9283,2.9318,2.9318,2.9317,0,2.9175,2.9175,2.9195,2.9198,2.9206,2.9212,2.9217,2.9236,2.924,2.9254,2.9254,2.9262,2.9269,2.9278,2.9292,2.93,2.9307,2.9295,2.9309,2.9304,2.9308,2.9308,2.9309,2.9293,2.9292,2.9292,2.9292,0,2.9148,2.9156,2.9163,2.9173,2.9179,2.9187,2.9197,2.9198,2.9219,2.9223,2.923,2.9235,2.9246,2.9253,2.9263,2.9271,2.9285,2.9287,2.9286,2.9282,2.9276,2.928,2.9317,2.9288,2.9288,2.9289,2.9289,2.9289,2.9126,2.9127,2.914,2.9147,2.9156,2.9164,2.9167,2.9179,2.9185,2.9195,2.9205,2.9211,2.9222,2.9237,2.9244,2.9248,2.9256,2.9254,2.9253,2.9253,2.9251,2.9274,2.925,2.925,2.925,2.925,2.925,0,2.91,2.911,2.9116,2.9129,2.9134,2.9145,2.9156,2.916,2.9164,2.9174,2.9181,2.9188,2.9195,2.9209,2.9217,2.9217,2.9224,2.9219,2.922,2.9221,2.9244,2.9245,2.9213,2.9213,2.9213,2.9213,2.9213,2.9213,2.9088,2.909,2.9099,2.9106,2.9115,2.9121,2.9126,2.9133,2.9141,2.9148,2.9154,2.9163,2.9175,2.9183,2.919,2.9193,2.9196,2.9189,2.9195,2.9216,2.922,2.9223,2.9224,2.9189,2.9189,2.9173,2.9172,2.9172]}]]